Probability
3 6 55 48 52 52 61 58 55 52 48 48 48 58 58 68 71 74 71 61 61 61 61 61 65 61 58 55 55 65 74 71 71 68 71 71 71 58 61 61 55 39 71
3 13 55 58 52 55 61 55 55 52 48 52 55 55 55 58 52 65 61 61 58 61 55 58 68 61 58 55 55 61 65 68 65 65 65 65 68 71 71 58 45 39 61
10 16 39 65 55 58 55 55 52 55 58 58 58 58 61 61 55 58 55 55 58 52 58 58 61 55 58 52 48 58 58 61 68 58 65 52 45 52 61 58 52 61 58
10 16 26 58 58 55 61 68 65 65 61 58 52 55 58 58 52 58 58 68 58 55 61 61 65 65 65 58 55 61 58 58 58 48 23 23 23 42 55 52 48 58 55
6 6 19 61 58 61 61 65 68 68 65 65 52 48 52 55 55 61 65 65 55 58 61 61 61 65 65 65 58 58 58 61 52 26 10 10 16 35 45 45 45 45 52
6 6 19 61 74 65 65 68 68 61 65 65 55 48 52 52 45 48 52 58 61 58 61 65 58 58 55 65 58 61 48 45 29 13 6 6 13 26 39 35 42 39 42
6 6 19 61 65 71 71 65 65 61 61 58 55 52 55 52 48 52 52 52 58 58 65 61 55 65 55 58 52 55 45 45 19 10 6 10 19 39 35 29 29 35 42
6 10 13 58 65 71 71 68 65 61 58 55 52 55 58 61 61 58 58 55 55 55 58 55 55 48 48 55 52 48 48 42 13 10 6 10 26 32 35 39 42 45 39
6 10 10 23 35 58 65 68 68 61 58 61 55 61 55 58 61 61 61 58 55 48 52 55 55 45 48 52 55 48 42 42 16 10 3 6 23 32 39 45 42 39 29
3 6 10 13 19 26 45 61 65 58 58 58 55 55 55 61 52 55 58 58 45 52 55 52 42 39 52 52 45 42 32 26 16 10 10 6 29 35 35 42 29 29 32
6 6 10 10 10 10 13 39 55 58 58 55 48 45 48 29 29 32 35 55 55 52 48 48 45 45 48 45 45 42 23 19 10 10 13 13 32 32 32 35 32 32 26
6 6 6 6 10 10 10 6 16 19 23 19 16 16 13 10 16 23 32 45 52 58 61 52 48 42 39 26 32 29 23 19 10 13 13 16 35 35 39 45 45 32 35
6 6 6 6 6 3 6 6 10 13 10 10 10 10 6 6 6 10 6 19 26 32 26 19 32 39 29 26 19 16 16 19 16 13 13 19 42 39 39 48 42 42 35
3 3 3 3 3 3 3 6 6 3 10 10 10 10 6 6 3 3 3 3 3 3 6 10 16 16 19 19 16 10 13 13 16 13 13 26 42 42 39 48 39 35 29
3 3 6 6 3 3 3 6 10 3 3 3 6 6 6 3 3 3 3 3 3 3 3 3 6 3 10 13 16 16 16 16 16 16 13 16 42 48 39 45 35 39 39
3 3 3 6 6 6 6 3 3 3 3 3 3 0 3 3 3 3 6 6 6 3 3 3 6 6 6 10 10 6 10 13 16 13 10 10 23 32 48 39 45 39 32
3 3 3 6 3 6 3 3 3 3 3 3 3 3 6 6 6 3 6 6 6 6 6 6 6 6 6 6 6 10 6 13 10 10 6 10 10 13 29 45 45 39 39
3 3 6 16 6 0 0 0 0 0 0 0 0 3 6 6 10 6 10 16 6 3 3 3 6 6 3 3 3 3 3 6 6 10 10 10 10 10 19 29 48 48 45
3 6 10 10 6 0 0 0 0 0 0 0 0 3 6 10 6 3 3 6 3 3 3 6 6 3 3 3 3 0 3 3 6 6 6 10 3 3 13 13 29 48 45
6 13 13 10 0 3 0 0 0 0 0 0 0 3 10 6 3 3 6 3 3 3 3 6 3 3 3 3 3 3 3 3 3 3 3 3 3 6 3 6 16 29 29
10 13 13 6 3 0 0 3 0 0 0 0 0 3 10 10 16 13 10 6 6 10 6 6 6 3 3 0 3 3 6 6 3 6 6 3 6 6 3 3 3 3 3
10 13 10 10 6 6 6 3 3 3 3 3 3 6 10 10 13 13 10 10 6 10 10 6 6 6 3 3 3 3 6 6 6 3 6 10 6 3 6 6 10 10 3
10 10 19 10 10 6 6 10 6 6 10 6 6 6 10 13 16 16 19 13 13 10 10 10 6 10 10 3 3 10 10 10 6 6 3 10 3 3 3 6 6 13 13
10 10 13 13 10 13 13 13 6 6 6 10 6 3 10 13 13 16 13 13 13 13 13 10 10 10 13 13 10 6 10 10 13 10 6 6 6 10 3 3 3 6 10
13 16 16 16 16 16 13 10 6 3 3 6 3 3 6 6 6 6 13 13 10 10 13 13 13 10 10 10 10 13 16 10 13 10 13 13 13 10 10 10 6 6 3
13 16 13 10 10 10 6 6 6 3 3 3 3 0 3 3 6 10 13 13 13 13 13 10 13 13 13 16 19 16 19 19 13 13 13 13 13 10 6 6 6 6 6
Height
5875 5875 5875 5875 5875 5875 5875 5876 5876 5877 5877 5878 5879 5879 5880 5882 5883 5884 5885 5886 5887 5887 5888 5889 5889 5889 5890 5890 5890 5891 5891 5891 5891 5891 5891 5891 5892 5892 5892 5892 5892 5893 5893
5876 5876 5876 5876 5876 5876 5876 5877 5877 5878 5878 5879 5880 5880 5882 5883 5884 5885 5886 5886 5887 5888 5888 5889 5890 5890 5890 5891 5891 5891 5891 5891 5891 5891 5891 5891 5891 5891 5891 5892 5892 5892 5893
5877 5877 5877 5877 5878 5878 5878 5878 5878 5879 5880 5880 5881 5882 5883 5884 5885 5886 5887 5887 5887 5888 5889 5889 5890 5890 5891 5891 5891 5891 5891 5891 5891 5891 5891 5891 5891 5891 5891 5891 5891 5891 5892
5879 5879 5878 5878 5879 5879 5879 5879 5879 5880 5881 5882 5882 5883 5884 5885 5886 5887 5887 5887 5888 5888 5889 5889 5890 5890 5891 5891 5891 5891 5891 5891 5891 5891 5891 5891 5890 5890 5890 5890 5890 5890 5891
5880 5880 5880 5880 5880 5880 5881 5881 5881 5882 5882 5883 5883 5884 5885 5886 5887 5887 5888 5888 5888 5888 5889 5889 5890 5890 5891 5891 5891 5891 5891 5891 5891 5891 5890 5890 5890 5890 5889 5889 5889 5890 5890
5881 5881 5881 5881 5881 5881 5882 5882 5882 5883 5883 5884 5885 5885 5886 5887 5887 5888 5888 5888 5888 5889 5889 5890 5890 5891 5891 5891 5891 5891 5891 5891 5890 5890 5889 5889 5889 5889 5889 5889 5889 5889 5889
5882 5882 5882 5883 5883 5883 5883 5883 5883 5884 5884 5885 5886 5886 5887 5887 5888 5888 5889 5889 5889 5889 5889 5890 5890 5891 5891 5891 5891 5890 5890 5890 5890 5890 5889 5889 5889 5888 5888 5888 5888 5888 5888
5883 5883 5884 5884 5884 5884 5884 5884 5884 5885 5886 5886 5887 5887 5888 5888 5889 5889 5889 5889 5889 5889 5889 5890 5890 5890 5891 5891 5890 5890 5890 5890 5890 5889 5889 5888 5888 5888 5887 5887 5887 5887 5887
5885 5885 5885 5885 5885 5885 5885 5885 5886 5886 5887 5887 5888 5888 5889 5889 5889 5889 5889 5889 5890 5890 5890 5890 5890 5890 5890 5890 5890 5890 5889 5889 5889 5889 5888 5888 5887 5887 5886 5886 5886 5886 5886
5886 5886 5886 5886 5887 5887 5886 5886 5887 5887 5888 5888 5889 5889 5889 5890 5890 5890 5890 5890 5890 5890 5890 5890 5890 5890 5890 5890 5890 5889 5889 5889 5888 5888 5888 5887 5886 5886 5885 5885 5885 5885 5885
5888 5888 5887 5888 5888 5888 5888 5888 5888 5888 5889 5889 5889 5890 5890 5890 5890 5890 5890 5890 5890 5890 5890 5890 5890 5890 5890 5889 5889 5889 5888 5888 5888 5888 5887 5886 5885 5885 5884 5884 5884 5884 5884
5890 5890 5889 5889 5890 5890 5890 5890 5889 5890 5890 5890 5890 5890 5890 5890 5890 5890 5890 5890 5890 5889 5889 5889 5889 5889 5889 5889 5888 5888 5887 5887 5887 5887 5886 5885 5884 5884 5883 5883 5883 5882 5882
5891 5891 5891 5891 5891 5891 5891 5891 5891 5891 5891 5891 5891 5891 5891 5890 5890 5890 5889 5889 5889 5889 5889 5889 5889 5889 5888 5888 5888 5887 5887 5886 5886 5885 5885 5884 5883 5883 5882 5882 5881 5881 5881
5893 5893 5892 5892 5892 5892 5892 5892 5892 5891 5891 5891 5891 5891 5890 5890 5890 5889 5889 5889 5888 5888 5888 5888 5888 5888 5887 5887 5887 5886 5886 5885 5885 5884 5884 5883 5882 5882 5881 5881 5880 5879 5879
5894 5894 5894 5893 5893 5893 5893 5892 5892 5892 5892 5891 5891 5890 5890 5890 5889 5889 5888 5888 5887 5887 5887 5887 5886 5886 5886 5886 5885 5885 5885 5884 5883 5883 5882 5882 5881 5881 5880 5879 5878 5877 5876
5895 5895 5895 5894 5894 5894 5894 5893 5893 5892 5892 5891 5891 5890 5890 5889 5888 5888 5887 5887 5887 5886 5886 5885 5885 5885 5884 5884 5884 5883 5883 5882 5881 5881 5880 5880 5879 5878 5878 5877 5876 5875 5874
5896 5896 5895 5895 5895 5895 5894 5894 5893 5893 5892 5891 5891 5890 5889 5888 5887 5887 5887 5886 5886 5885 5885 5884 5884 5884 5883 5883 5882 5882 5881 5880 5879 5879 5878 5877 5877 5876 5875 5875 5874 5872 5872
5897 5897 5896 5896 5896 5895 5895 5894 5894 5893 5892 5891 5890 5889 5888 5887 5887 5886 5886 5885 5885 5884 5884 5883 5883 5882 5882 5881 5881 5880 5879 5878 5877 5877 5876 5875 5875 5874 5873 5872 5871 5870 5870
5898 5898 5897 5897 5896 5896 5895 5894 5894 5893 5892 5891 5890 5889 5888 5887 5886 5886 5885 5885 5884 5884 5883 5882 5882 5881 5881 5880 5879 5878 5877 5876 5875 5874 5873 5872 5872 5871 5870 5869 5869 5868 5867
5899 5898 5898 5897 5897 5896 5895 5895 5894 5893 5892 5890 5889 5888 5887 5886 5885 5885 5884 5884 5883 5883 5882 5881 5880 5880 5879 5878 5877 5876 5875 5874 5873 5872 5871 5870 5869 5868 5867 5867 5866 5865 5864
5900 5899 5898 5898 5897 5896 5896 5895 5894 5892 5891 5890 5889 5887 5886 5885 5885 5884 5883 5883 5882 5882 5881 5880 5879 5878 5877 5876 5875 5874 5873 5871 5870 5869 5868 5867 5866 5865 5864 5863 5862 5861 5860
5901 5900 5899 5898 5897 5897 5895 5895 5894 5892 5891 5890 5888 5887 5886 5885 5884 5883 5883 5882 5881 5881 5880 5879 5878 5876 5875 5874 5873 5872 5871 5870 5868 5866 5865 5864 5863 5862 5861 5860 5859 5858 5857
5901 5900 5899 5898 5898 5897 5895 5895 5893 5892 5891 5890 5888 5887 5885 5884 5883 5882 5882 5881 5880 5879 5878 5877 5876 5875 5874 5873 5871 5870 5869 5868 5866 5864 5862 5861 5859 5858 5857 5856 5855 5854 5852
5901 5900 5900 5898 5897 5896 5895 5894 5893 5892 5891 5890 5888 5886 5885 5883 5882 5881 5880 5880 5879 5878 5877 5876 5875 5873 5872 5870 5869 5867 5866 5865 5863 5862 5860 5857 5856 5855 5853 5852 5851 5850 5848
5901 5901 5900 5898 5897 5896 5895 5894 5892 5891 5890 5889 5888 5886 5885 5883 5881 5880 5879 5878 5878 5877 5876 5874 5873 5871 5869 5868 5866 5865 5863 5861 5860 5858 5857 5855 5853 5851 5850 5848 5847 5845 5843
5902 5901 5900 5898 5897 5896 5895 5893 5892 5891 5889 5888 5887 5885 5883 5882 5880 5879 5878 5877 5876 5875 5874 5872 5870 5869 5867 5865 5863 5862 5860 5858 5856 5855 5853 5851 5849 5847 5845 5844 5842 5841 5839
Wind_Speed
7 7 8 9 9 9 9 9 8 9 9 9 8 7 8 8 7 6 5 5 5 4 4 4 3 3 2 1 2 1 1 1 1 2 3 3 3 4 4 4 4 4 4
8 8 8 8 9 9 9 9 8 8 8 8 7 8 7 7 7 6 5 5 5 4 4 3 3 3 2 2 2 1 1 2 1 1 2 3 3 4 4 5 5 4 4
8 8 8 8 9 9 9 8 8 7 7 7 7 7 7 6 7 6 6 5 5 4 4 4 4 3 3 2 2 1 1 1 1 1 2 2 3 4 4 5 6 6 5
8 8 9 9 9 9 9 8 8 8 8 9 8 7 6 6 6 6 5 5 5 4 4 3 4 3 2 2 2 2 1 1 1 1 2 3 3 4 4 5 5 6 6
8 8 9 9 10 9 9 9 9 9 9 9 9 8 7 6 6 5 4 4 4 4 3 3 3 2 1 1 1 1 0 0 1 2 2 2 3 3 4 4 5 5 5
8 9 9 10 10 9 9 9 8 8 8 8 8 8 8 7 5 5 5 4 4 3 3 2 2 1 1 0 0 0 0 1 1 2 2 3 2 3 3 4 5 5 5
9 9 10 10 10 10 9 9 8 8 8 8 8 8 7 7 5 5 5 5 4 3 2 2 2 1 1 1 0 1 1 2 3 3 3 3 3 3 4 4 5 5 5
9 10 10 10 10 10 9 9 9 8 8 8 7 7 7 6 5 5 5 5 5 4 3 2 2 1 1 1 1 1 2 3 4 4 4 4 4 4 4 4 5 6 6
10 10 10 9 9 9 9 9 9 8 8 8 7 6 7 6 5 4 4 4 4 4 3 2 2 1 1 1 1 1 2 3 4 4 4 4 4 4 4 4 5 6 6
10 10 10 10 9 9 9 9 9 9 8 7 6 6 6 6 5 4 4 3 3 3 3 2 1 1 2 2 2 2 2 3 4 4 4 4 4 4 4 5 5 5 6
11 11 10 10 9 9 9 9 9 8 8 7 7 6 6 5 5 4 3 2 2 1 1 1 1 1 2 2 3 3 3 4 4 5 5 5 4 3 4 5 6 6 6
11 11 11 10 10 9 9 9 9 8 7 7 6 6 5 4 4 4 4 2 1 1 1 1 2 2 2 2 3 4 4 4 4 5 4 5 5 5 5 6 6 7 7
11 10 10 10 9 9 9 9 8 8 7 6 6 5 4 4 4 4 3 2 1 1 2 2 3 2 3 3 4 4 4 4 5 5 4 4 5 6 6 6 7 7 8
10 10 9 9 9 9 8 8 7 7 7 6 5 5 4 3 3 3 3 2 1 1 2 3 4 3 3 4 4 5 5 5 5 6 5 5 6 6 6 7 7 7 9
9 9 9 9 9 8 7 7 6 6 6 5 5 4 4 4 3 3 4 3 2 2 3 4 4 4 5 5 5 5 5 6 6 6 6 6 6 7 7 8 8 8 9
9 9 9 8 8 8 8 8 7 7 6 6 5 4 4 4 3 3 4 3 3 3 3 4 4 5 6 6 6 6 6 6 7 7 7 7 6 7 8 8 8 9 9
9 8 8 8 8 7 7 7 7 6 6 6 5 5 5 4 3 3 3 4 3 3 3 4 4 5 6 6 6 6 6 6 7 8 8 8 8 8 9 9 9 9 9
8 8 8 7 7 6 6 6 6 6 6 5 5 5 5 5 4 3 3 3 3 3 4 5 5 5 6 6 7 7 7 8 8 9 9 9 9 10 10 9 9 10 10
7 7 7 6 6 6 7 6 6 6 7 6 6 5 6 6 5 4 3 3 3 4 5 5 6 6 6 7 7 8 8 8 8 8 8 9 9 10 10 10 10 11 11
7 7 6 6 6 6 6 6 6 6 6 6 7 6 6 6 5 4 3 3 4 5 6 6 6 7 7 8 8 8 9 9 8 9 9 10 10 11 11 11 11 12 12
7 7 7 6 5 5 5 6 6 6 7 6 7 7 6 6 5 4 4 5 6 6 6 7 8 9 8 8 9 9 10 10 10 10 11 11 11 11 12 12 12 13 13
6 6 6 6 5 5 5 5 6 6 6 7 7 7 7 6 6 5 5 6 6 6 7 8 8 9 9 9 9 9 11 11 12 12 12 12 12 12 13 13 13 14 15
6 6 6 6 5 6 6 5 6 6 6 7 8 8 7 7 6 6 6 6 7 7 8 9 9 9 9 9 10 10 11 11 12 13 13 13 13 14 14 14 15 15 16
6 6 7 7 6 6 6 6 6 6 7 8 8 8 8 7 7 6 6 7 8 8 9 9 10 10 10 10 11 11 12 13 13 13 14 14 14 14 15 16 17 17 18
5 6 7 7 7 7 7 7 7 7 7 8 9 9 8 8 7 7 7 8 9 9 10 10 11 11 12 12 13 13 13 14 14 14 14 15 16 16 16 17 18 18 18
5 6 7 7 7 7 8 9 9 8 8 8 9 9 9 10 9 9 9 9 10 10 11 12 13 14 14 15 15 16 16 16 16 16 15 16 17 17 18 18 19 19 19
Wind_Direction
72 78 84 87 88 92 93 98 102 101 102 96 96 107 113 121 123 125 125 121 123 130 131 129 123 130 116 129 169 162 201 179 147 192 208 215 225 236 243 240 234 243 253
76 82 84 87 88 88 90 94 100 100 100 97 93 98 107 111 113 115 115 113 118 124 127 122 120 117 116 117 139 170 195 181 188 200 204 217 234 246 246 246 248 244 247
79 85 87 87 86 85 87 88 92 94 93 88 91 97 98 103 111 114 113 109 110 115 122 120 119 116 108 111 105 121 214 207 214 224 226 235 246 252 248 250 252 250 252
82 89 91 90 87 86 86 86 93 95 92 87 88 94 100 103 108 114 109 104 103 108 115 118 115 112 111 120 106 90 70 228 234 250 244 256 260 256 253 257 256 258 261
85 88 87 87 87 86 86 85 92 98 95 87 86 89 90 96 99 100 100 98 104 107 116 129 124 121 119 124 105 77 19 317 285 292 274 284 276 261 252 258 254 263 266
89 91 88 87 86 84 83 86 90 92 94 88 87 88 87 88 95 94 82 87 99 103 121 139 132 134 151 146 96 17 304 294 298 306 293 303 297 258 250 256 260 262 266
92 94 91 89 86 85 83 83 90 90 90 90 89 87 87 88 92 89 81 81 96 99 108 136 132 114 111 105 354 256 263 281 300 312 296 293 289 271 260 257 260 259 267
88 91 92 89 87 86 84 85 87 91 92 92 89 86 83 88 89 85 88 86 88 89 93 107 115 86 103 71 342 268 258 268 279 291 299 295 286 274 272 268 267 274 266
86 89 89 87 85 82 82 84 85 85 86 85 83 83 79 80 81 78 80 84 79 80 91 109 103 69 33 336 326 289 282 289 287 290 288 294 296 297 289 281 272 271 269
83 86 86 84 81 80 80 82 79 81 85 83 77 76 77 75 72 69 75 78 75 74 78 74 77 17 354 335 325 323 304 299 302 305 299 294 288 286 288 288 282 285 272
81 82 83 83 78 76 77 78 78 77 77 77 74 75 72 70 64 56 53 52 55 54 74 35 24 5 352 342 331 320 312 298 299 302 304 306 298 289 284 281 280 282 280
81 82 82 82 83 79 76 75 76 75 75 78 78 76 72 70 61 54 44 32 20 349 352 345 354 356 340 328 325 316 312 308 308 303 303 306 300 299 293 287 284 282 276
83 83 84 83 82 79 76 72 68 65 67 77 75 71 69 67 55 43 42 31 4 322 307 309 324 333 321 313 312 311 309 312 306 307 304 304 304 306 299 289 288 290 285
80 80 82 80 79 77 74 69 65 62 62 63 59 54 53 48 33 23 20 6 357 302 296 302 301 313 311 315 316 312 305 305 306 304 301 301 304 308 305 299 299 289 283
77 79 81 77 76 76 72 66 63 64 59 52 48 42 34 22 16 6 352 347 338 307 296 299 301 306 315 314 313 310 305 302 299 301 299 293 298 306 310 308 306 296 288
77 77 78 77 76 73 68 66 64 60 57 52 43 35 29 20 10 8 6 4 2 340 326 315 310 304 304 316 317 316 314 311 304 296 293 289 294 300 303 305 304 300 294
73 72 70 69 70 68 66 62 58 54 53 49 43 34 22 12 12 17 8 11 9 1 350 337 322 309 313 315 317 318 315 312 304 297 290 289 290 292 296 299 301 296 292
68 67 64 61 60 59 61 57 50 44 44 45 36 24 14 7 4 3 9 7 359 352 344 335 326 320 316 314 311 313 310 307 302 299 296 290 289 291 292 294 295 293 292
62 59 55 53 52 53 53 49 43 38 33 30 21 12 7 5 3 3 2 359 356 343 344 340 334 326 317 314 312 310 311 311 303 298 297 295 296 296 297 293 292 293 292
50 46 44 45 43 42 40 38 33 28 26 21 12 6 5 1 356 354 347 340 345 340 335 333 330 324 320 316 317 316 316 315 307 304 302 299 298 297 296 295 292 294 294
46 41 38 39 37 30 28 25 24 25 21 18 10 3 0 354 348 344 338 332 331 330 330 329 326 326 324 319 318 318 317 318 311 306 303 299 296 294 294 291 289 290 291
38 35 28 28 28 28 21 16 18 13 8 7 4 357 353 348 346 343 336 336 334 332 331 330 330 329 325 321 320 317 316 316 313 310 304 299 297 297 296 293 291 290 288
30 27 24 21 16 14 7 5 5 6 359 355 353 352 348 347 344 338 335 335 334 331 330 331 333 330 325 321 319 318 316 314 313 308 304 301 299 298 297 296 293 292 291
29 26 21 14 7 0 350 350 352 352 351 347 345 345 347 347 343 334 327 329 331 328 326 328 332 329 324 319 319 316 313 310 310 309 305 303 300 298 296 295 295 295 291
22 17 11 5 358 355 349 341 341 345 346 346 343 338 334 332 333 332 328 325 325 324 323 324 325 322 317 314 314 314 313 312 312 309 305 302 300 298 297 297 296 295 292
355 354 356 356 355 350 345 338 340 339 337 339 337 331 328 327 324 326 324 320 319 319 320 318 319 319 313 309 308 308 308 308 308 307 304 300 297 296 297 297 296 295 293